�N����,����,�~����,�C��,���x,�C��,����,���ϕ���,�ő�u�ԕ���,�ő厞����,���˗�,�I�_���x,�n�����x,�ő啗���N��,DTYPE
"23/03/22","00:10",0.0,10.9,98.3,1010.9,287.6,1.1,1.4,311.9,0.00,10.7,11.5,"00:05:20",1
"23/03/22","00:20",0.0,11.1,97.9,1010.4,103.8,0.3,1.0,293.7,0.00,10.8,11.6,"00:10:08",1
"23/03/22","00:30",0.0,10.7,98.3,1010.4,340.9,1.2,2.0,334.6,0.00,10.5,11.4,"00:25:12",1
"23/03/22","00:40",0.0,10.7,97.9,1010.7,310.2,1.3,1.8,334.4,0.00,10.4,11.5,"00:30:32",1
"23/03/22","00:50",0.0,10.6,98.5,1010.7,282.1,1.3,1.6,266.3,0.00,10.4,11.6,"00:42:56",1
"23/03/22","01:00",0.0,10.8,98.0,1010.4,304.4,1.1,1.4,315.0,0.00,10.5,11.5,"00:50:08",1
"23/03/22","01:10",0.0,10.3,98.0,1010.7,314.5,1.3,1.9,312.4,0.00,10.0,11.4,"01:06:24",1
"23/03/22","01:20",0.0,10.4,98.0,1010.4,323.6,1.2,1.7,317.3,0.00,10.1,11.7,"01:14:40",1
"23/03/22","01:30",0.0,10.3,98.0,1010.4,304.2,1.1,1.7,321.5,0.00,10.0,11.3,"01:20:40",1
"23/03/22","01:40",0.2,10.2,98.1,1010.7,296.2,0.3,0.9,304.5,0.00,10.0,11.4,"01:34:00",1
"23/03/22","01:50",0.0,9.9,98.0,1010.7,328.9,1.2,2.2,321.9,0.00,9.6,11.5,"01:49:36",1
"23/03/22","02:00",0.0,9.4,98.2,1010.2,280.7,0.7,1.8,328.3,0.00,9.2,11.4,"01:50:08",1
"23/03/22","02:10",0.0,9.6,98.4,1010.2,235.7,0.1,0.6,271.0,0.00,9.4,11.4,"02:00:16",1
"23/03/22","02:20",0.0,9.2,98.3,1010.2,323.5,1.2,2.1,338.9,0.00,9.0,11.4,"02:15:14",1
"23/03/22","02:30",0.0,9.1,98.4,1010.4,320.8,1.5,2.0,321.1,0.00,8.9,11.4,"02:24:24",1
"23/03/22","02:40",0.0,9.1,98.5,1010.4,296.4,1.0,1.8,308.5,0.00,8.9,11.3,"02:39:20",1
"23/03/22","02:50",0.0,9.2,98.5,1010.2,306.4,1.0,1.6,323.2,0.00,9.0,11.6,"02:42:08",1
"23/03/22","03:00",0.0,9.3,98.6,1010.2,299.3,1.2,2.0,321.4,0.00,9.1,11.2,"02:57:44",1
"23/03/22","03:10",0.0,9.5,98.4,1010.2,287.8,1.1,1.8,333.8,0.00,9.3,11.3,"03:00:08",1
"23/03/22","03:20",0.0,9.6,98.4,1010.2,316.6,1.2,1.7,335.5,0.00,9.4,11.1,"03:19:36",1
"23/03/22","03:30",0.0,8.8,98.5,1010.4,321.9,1.5,1.9,330.0,0.00,8.6,11.3,"03:20:40",1
"23/03/22","03:40",0.0,8.7,98.6,1010.2,289.1,0.6,1.3,310.4,0.00,8.5,11.3,"03:31:12",1
"23/03/22","03:50",0.0,8.7,98.7,1010.0,275.8,0.3,0.9,313.2,0.00,8.5,11.2,"03:42:40",1
"23/03/22","04:00",0.0,8.2,98.7,1009.7,325.6,1.3,2.5,327.3,0.00,8.0,11.2,"03:57:34",1
"23/03/22","04:10",0.0,8.4,98.8,1010.0,291.9,0.8,1.7,334.0,0.00,8.3,11.0,"04:00:08",1
"23/03/22","04:20",0.0,8.3,98.7,1010.2,277.9,0.7,1.2,267.7,0.00,8.1,11.2,"04:10:08",1
"23/03/22","04:30",0.0,8.9,98.9,1010.4,299.4,1.0,1.4,302.8,0.00,8.8,11.2,"04:23:28",1
"23/03/22","04:40",0.0,9.3,98.7,1010.4,302.6,0.7,1.2,328.6,0.00,9.1,10.9,"04:30:56",1
"23/03/22","04:50",0.0,9.1,98.7,1010.4,294.2,0.7,1.7,315.9,0.00,8.9,11.0,"04:49:20",1
"23/03/22","05:00",0.0,8.8,98.7,1010.4,324.9,1.5,1.6,331.4,0.00,8.6,11.0,"04:50:32",1
"23/03/22","05:10",0.0,9.0,98.7,1010.7,301.9,0.8,1.2,333.4,0.00,8.8,10.9,"05:02:08",1
"23/03/22","05:20",0.0,9.0,98.8,1010.7,324.1,1.0,1.4,347.1,0.00,8.9,11.1,"05:14:24",1
"23/03/22","05:30",0.0,8.9,98.8,1010.7,299.7,1.1,1.4,323.4,0.00,8.8,10.8,"05:28:16",1
"23/03/22","05:40",0.0,9.2,98.9,1010.9,307.4,1.3,1.8,324.5,0.00,9.1,10.8,"05:31:44",1
"23/03/22","05:50",0.0,9.5,98.8,1010.9,295.1,1.1,1.4,267.0,0.00,9.4,10.8,"05:48:00",1
"23/03/22","06:00",0.0,9.7,98.7,1010.4,304.6,1.2,2.1,327.4,0.00,9.5,10.8,"05:59:20",1
"23/03/22","06:10",0.0,9.9,98.7,1010.9,303.2,1.2,2.2,328.3,0.00,9.7,10.9,"06:00:08",1
"23/03/22","06:20",0.0,10.0,98.6,1010.7,292.7,1.3,1.8,264.8,0.00,9.8,10.9,"06:12:10",1
"23/03/22","06:30",0.0,9.9,98.5,1010.7,323.5,1.5,2.5,316.3,0.00,9.7,10.8,"06:20:40",1
"23/03/22","06:40",0.0,9.8,98.6,1010.7,302.2,1.1,1.8,307.0,0.00,9.6,10.7,"06:37:12",1
"23/03/22","06:50",0.0,10.0,98.7,1010.4,288.7,1.2,2.0,296.7,0.00,9.8,10.8,"06:46:48",1
"23/03/22","07:00",0.0,10.3,98.7,1010.7,299.6,1.7,2.7,307.6,0.00,10.1,10.9,"06:54:30",1
"23/03/22","07:10",0.0,10.5,98.7,1010.9,307.2,1.3,1.8,321.4,0.00,10.3,10.9,"07:08:28",1
"23/03/22","07:20",0.0,9.8,98.7,1010.9,102.7,1.0,1.4,111.8,0.01,9.6,10.7,"07:15:50",1
"23/03/22","07:30",0.0,9.7,98.8,1011.2,116.4,0.6,1.3,113.0,0.02,9.6,10.8,"07:20:24",1
"23/03/22","07:40",0.0,10.3,99.0,1011.4,117.5,0.5,0.9,94.3,0.04,10.2,10.8,"07:30:08",1
"23/03/22","07:50",0.0,11.0,98.8,1011.2,326.9,1.7,2.2,341.2,0.10,10.9,10.7,"07:46:30",1
"23/03/22","08:00",0.0,11.3,98.7,1011.2,310.7,1.5,2.1,339.8,0.12,11.1,10.7,"07:51:12",1
"23/03/22","08:10",0.0,11.8,98.7,1011.4,271.8,1.2,2.0,246.4,0.15,11.6,10.8,"08:02:08",1
"23/03/22","08:20",0.0,12.7,98.6,1011.6,315.4,0.7,1.6,307.3,0.19,12.5,10.8,"08:12:08",1
"23/03/22","08:30",0.0,13.5,98.3,1011.6,340.9,0.5,1.1,319.5,0.22,13.3,10.9,"08:27:52",1
"23/03/22","08:40",0.0,14.2,97.9,1011.6,338.5,0.5,1.1,337.4,0.24,13.9,10.7,"08:30:08",1
"23/03/22","08:50",0.0,13.7,98.7,1011.4,116.4,0.6,1.3,119.8,0.29,13.5,10.7,"08:45:12",1
"23/03/22","09:00",0.0,14.5,98.1,1011.9,119.9,0.3,0.9,123.8,0.30,14.2,10.8,"08:59:28",1
"23/03/22","09:10",0.0,15.5,97.6,1011.4,223.4,0.5,1.1,102.8,0.36,15.2,10.7,"09:00:40",1
"23/03/22","09:20",0.0,15.5,98.0,1011.4,98.5,0.6,1.4,307.5,0.37,15.2,10.9,"09:14:08",1
"23/03/22","09:30",0.0,15.9,96.9,1011.4,9.4,0.3,1.2,347.2,0.38,15.4,11.1,"09:24:00",1
"23/03/22","09:40",0.0,16.0,96.7,1011.4,170.3,0.7,2.0,127.9,0.44,15.5,10.9,"09:38:24",1
"23/03/22","09:50",0.0,15.9,96.0,1011.6,213.6,1.0,2.0,207.8,0.47,15.3,11.1,"09:48:40",1
"23/03/22","10:00",0.0,16.4,95.3,1011.4,203.3,1.0,2.6,150.2,0.50,15.7,11.2,"09:53:12",1
"23/03/22","10:10",0.0,16.5,94.1,1012.1,214.6,1.6,4.1,225.9,0.52,15.6,11.1,"10:09:20",1
"23/03/22","10:20",0.0,17.1,92.3,1012.1,188.5,1.5,2.9,240.6,0.56,15.9,11.1,"10:10:08",1
"23/03/22","10:30",0.0,17.6,89.2,1011.6,179.4,1.8,4.2,153.2,0.57,15.8,11.2,"10:23:12",1
"23/03/22","10:40",0.0,18.4,84.1,1011.6,167.6,1.8,3.7,152.9,0.59,15.7,11.2,"10:34:56",1
"23/03/22","10:50",0.0,19.1,80.2,1011.2,167.8,1.5,4.5,198.4,0.61,15.7,11.5,"10:44:00",1
"23/03/22","11:00",0.0,19.3,77.7,1010.9,199.4,1.3,2.8,135.3,0.61,15.4,11.6,"10:50:40",1
"23/03/22","11:10",0.0,19.7,75.4,1010.7,126.9,2.1,5.7,117.9,0.65,15.3,11.5,"11:08:40",1
"23/03/22","11:20",0.0,19.9,74.9,1010.9,148.0,2.5,4.4,126.3,0.67,15.4,11.7,"11:19:44",1
"23/03/22","11:30",0.0,20.4,73.3,1010.4,164.7,2.0,4.4,119.1,0.68,15.5,12.0,"11:27:20",1
"23/03/22","11:40",0.0,20.4,72.9,1010.7,149.0,2.7,4.8,155.3,0.65,15.4,11.9,"11:36:16",1
"23/03/22","11:50",0.0,20.9,71.5,1010.2,159.1,2.0,4.9,129.9,0.56,15.6,12.1,"11:44:32",1
"23/03/22","12:00",0.0,21.0,70.4,1010.0,189.9,2.0,4.0,193.8,0.53,15.5,12.3,"11:53:44",1
"23/03/22","12:10",0.0,21.6,68.8,1010.2,132.6,1.5,4.8,104.4,0.52,15.7,12.4,"12:08:20",1
"23/03/22","12:20",0.0,21.7,69.4,1010.0,135.7,1.6,4.3,129.9,0.52,15.9,12.5,"12:12:56",1
"23/03/22","12:30",0.0,21.6,67.5,1009.7,130.6,1.8,4.4,124.4,0.52,15.4,12.6,"12:26:00",1
"23/03/22","12:40",0.0,21.9,65.8,1009.5,183.2,1.2,3.2,127.0,0.53,15.3,12.5,"12:31:20",1
"23/03/22","12:50",0.0,22.2,64.8,1009.0,206.0,1.6,3.6,117.7,0.52,15.3,12.7,"12:46:24",1
"23/03/22","13:00",0.0,22.8,64.0,1008.8,188.2,1.3,3.5,128.9,0.53,15.7,12.8,"12:57:52",1
"23/03/22","13:10",0.0,23.0,64.4,1008.6,193.7,2.3,4.5,225.3,0.53,16.0,13.0,"13:03:12",1
"23/03/22","13:20",0.0,23.1,63.5,1008.3,83.9,1.8,4.5,114.8,0.52,15.8,13.3,"13:11:12",1
"23/03/22","13:30",0.0,23.5,61.2,1007.8,70.4,1.1,3.3,122.5,0.52,15.6,13.4,"13:22:40",1
"23/03/22","13:40",0.0,23.4,59.2,1007.4,88.4,1.3,3.7,356.6,0.51,15.0,13.5,"13:39:20",1
"23/03/22","13:50",0.0,23.6,60.3,1007.6,28.0,1.7,3.3,109.9,0.51,15.5,13.3,"13:44:48",1
"23/03/22","14:00",0.0,23.8,59.3,1006.9,147.7,1.2,3.4,121.0,0.51,15.4,13.5,"13:51:28",1
"23/03/22","14:10",0.0,24.0,57.8,1007.1,48.9,2.1,4.8,120.5,0.49,15.2,13.7,"14:07:36",1
"23/03/22","14:20",0.0,24.2,57.7,1006.9,89.8,1.8,3.9,120.7,0.50,15.4,13.8,"14:19:52",1
"23/03/22","14:30",0.0,24.4,57.7,1006.9,146.7,1.7,4.0,127.0,0.45,15.6,13.9,"14:27:20",1
"23/03/22","14:40",0.0,24.4,56.2,1007.1,169.2,2.2,5.1,114.9,0.49,15.2,14.0,"14:38:24",1
"23/03/22","14:50",0.0,24.2,57.3,1006.7,135.0,2.2,4.8,136.2,0.43,15.3,14.1,"14:45:28",1
"23/03/22","15:00",0.0,24.9,56.4,1007.1,161.6,1.8,2.9,210.9,0.45,15.7,14.4,"14:56:48",1
"23/03/22","15:10",0.0,24.8,55.2,1006.9,107.5,2.1,5.5,114.4,0.44,15.2,14.4,"15:08:48",1
"23/03/22","15:20",0.0,24.3,54.7,1006.4,109.8,2.6,4.9,126.4,0.37,14.6,14.5,"15:16:40",1
"23/03/22","15:30",0.0,24.0,56.0,1006.4,109.8,2.5,5.4,136.7,0.24,14.7,14.6,"15:28:48",1
"23/03/22","15:40",0.0,24.5,54.5,1006.2,116.6,2.8,5.1,114.2,0.38,14.8,14.7,"15:30:16",1
"23/03/22","15:50",0.0,24.8,53.3,1006.0,88.9,2.0,4.3,43.1,0.35,14.7,14.7,"15:42:40",1
"23/03/22","16:00",0.0,24.9,52.9,1006.2,109.0,2.6,4.8,118.8,0.30,14.7,14.7,"15:59:12",1
"23/03/22","16:10",0.0,24.6,53.6,1005.7,128.5,3.1,5.4,118.5,0.26,14.6,14.8,"16:04:48",1
"23/03/22","16:20",0.0,24.6,52.9,1006.2,106.9,3.0,4.9,98.0,0.26,14.4,15.0,"16:14:56",1
"23/03/22","16:30",0.0,24.7,53.3,1006.2,115.3,2.6,5.4,106.1,0.25,14.6,14.8,"16:26:24",1
"23/03/22","16:40",0.0,24.5,53.6,1006.4,118.4,3.4,5.4,120.4,0.22,14.5,14.9,"16:36:48",1
"23/03/22","16:50",0.0,24.5,51.4,1006.2,111.0,2.7,6.0,115.0,0.19,13.9,14.9,"16:44:56",1
"23/03/22","17:00",0.0,24.6,52.6,1006.4,107.7,2.2,3.9,120.1,0.17,14.3,15.2,"16:52:16",1
"23/03/22","17:10",0.0,24.1,52.7,1006.4,109.0,2.2,4.2,130.6,0.10,13.9,15.0,"17:03:44",1
"23/03/22","17:20",0.0,23.8,53.8,1006.7,106.1,2.8,6.0,122.2,0.07,13.9,15.2,"17:11:36",1
"23/03/22","17:30",0.0,23.7,54.1,1006.9,107.4,2.5,6.0,119.3,0.07,13.9,15.2,"17:22:48",1
"23/03/22","17:40",0.0,23.8,52.9,1006.9,98.9,2.5,4.9,95.5,0.07,13.7,15.1,"17:33:20",1
"23/03/22","17:50",0.0,23.2,54.3,1006.9,100.8,2.6,5.5,100.8,0.02,13.5,15.1,"17:40:02",1
"23/03/22","18:00",0.0,23.0,55.7,1006.9,109.6,3.0,6.5,115.6,0.01,13.7,15.5,"17:50:24",1
"23/03/22","18:10",0.0,22.7,57.3,1007.4,105.7,3.2,6.6,119.4,0.01,13.9,15.2,"18:02:24",1
"23/03/22","18:20",0.0,22.5,58.4,1007.6,107.1,2.3,4.0,111.5,0.00,14.0,15.3,"18:10:24",1
"23/03/22","18:30",0.0,22.2,59.8,1007.8,105.8,2.6,4.4,110.8,0.00,14.1,15.1,"18:24:40",1
"23/03/22","18:40",0.0,21.9,60.9,1008.3,98.0,2.2,4.4,124.5,0.00,14.1,15.3,"18:38:32",1
"23/03/22","18:50",0.0,21.7,61.6,1008.3,101.0,2.5,3.6,105.3,0.00,14.0,15.2,"18:42:00",1
"23/03/22","19:00",0.0,21.2,63.2,1008.6,103.0,2.1,4.2,122.1,0.00,14.0,15.4,"18:55:28",1
"23/03/22","19:10",0.0,21.0,63.8,1008.3,98.1,1.8,4.8,123.9,0.00,13.9,15.2,"19:09:52",1
"23/03/22","19:20",0.0,20.8,64.8,1008.6,100.7,1.7,3.4,106.1,0.00,14.0,15.0,"19:14:16",1
"23/03/22","19:30",0.0,20.5,65.7,1009.0,90.1,1.2,2.5,101.4,0.00,13.9,15.2,"19:21:28",1
"23/03/22","19:40",0.0,20.3,66.7,1009.5,96.5,1.6,3.1,116.5,0.00,13.9,15.1,"19:39:04",1
"23/03/22","19:50",0.0,20.2,66.8,1009.3,106.2,2.6,4.9,118.2,0.00,13.9,15.1,"19:42:48",1
"23/03/22","20:00",0.0,20.0,67.1,1009.5,102.1,2.0,3.9,102.7,0.00,13.8,15.0,"19:50:56",1
"23/03/22","20:10",0.0,19.8,67.4,1009.7,110.4,2.0,3.2,117.4,0.00,13.6,15.1,"20:03:52",1
"23/03/22","20:20",0.0,19.6,67.9,1009.5,123.7,2.0,3.6,127.7,0.00,13.6,15.1,"20:14:08",1
"23/03/22","20:30",0.0,19.4,68.7,1009.7,109.6,1.6,2.7,113.6,0.00,13.5,15.0,"20:20:40",1
"23/03/22","20:40",0.0,19.1,69.6,1010.0,109.8,1.8,3.5,106.9,0.00,13.5,14.9,"20:33:36",1
"23/03/22","20:50",0.0,18.8,70.3,1009.7,107.9,1.2,2.2,117.6,0.00,13.3,15.0,"20:47:28",1
"23/03/22","21:00",0.0,18.7,70.6,1010.0,101.1,1.5,2.8,127.0,0.00,13.3,14.8,"20:57:36",1
"23/03/22","21:10",0.0,18.8,70.3,1010.4,97.5,1.8,3.6,115.0,0.00,13.3,14.8,"21:00:24",1
"23/03/22","21:20",0.0,18.6,70.4,1010.2,110.7,2.0,3.5,110.0,0.00,13.2,14.8,"21:15:12",1
"23/03/22","21:30",0.0,18.6,70.0,1010.7,118.2,2.6,4.7,120.4,0.00,13.1,14.7,"21:28:08",1
"23/03/22","21:40",0.0,18.9,68.9,1010.4,118.7,3.4,5.7,121.1,0.00,13.1,14.8,"21:33:28",1
"23/03/22","21:50",0.0,18.6,69.3,1010.4,118.2,2.6,5.4,116.2,0.00,12.9,14.7,"21:40:16",1
"23/03/22","22:00",0.0,18.5,70.0,1010.4,119.2,2.5,4.7,127.4,0.00,13.0,14.5,"21:57:44",1
"23/03/22","22:10",0.0,18.6,70.2,1010.7,119.3,3.2,6.2,119.7,0.00,13.1,14.7,"22:07:52",1
"23/03/22","22:20",0.0,18.4,70.8,1010.7,118.2,2.7,5.5,122.4,0.00,13.0,14.7,"22:17:12",1
"23/03/22","22:30",0.0,18.2,71.6,1010.4,109.3,1.8,3.5,115.0,0.00,13.0,14.5,"22:28:16",1
"23/03/22","22:40",0.0,18.1,72.2,1010.7,74.9,1.1,1.9,69.3,0.00,13.1,14.7,"22:30:24",1
"23/03/22","22:50",0.0,17.8,73.2,1010.7,99.8,1.0,2.0,28.2,0.00,13.0,14.3,"22:43:28",1
"23/03/22","23:00",0.0,17.8,74.3,1010.7,102.6,1.3,3.1,85.0,0.00,13.2,14.6,"22:51:04",1
"23/03/22","23:10",0.0,17.8,75.1,1010.9,87.0,1.1,2.2,98.3,0.00,13.4,14.5,"23:00:24",1
"23/03/22","23:20",0.0,17.7,75.8,1010.2,86.9,0.8,1.7,126.0,0.00,13.4,14.4,"23:10:08",1
"23/03/22","23:30",0.0,17.5,76.6,1010.7,81.2,0.7,1.4,113.1,0.00,13.4,14.5,"23:26:08",1
"23/03/22","23:40",0.0,17.4,77.5,1010.2,92.2,1.0,2.1,112.5,0.00,13.5,14.3,"23:32:16",1
"23/03/22","23:50",0.0,17.5,77.7,1010.0,104.0,1.5,3.1,114.9,0.00,13.6,14.5,"23:42:16",1
"23/03/22","24:00",0.0,17.5,78.2,1010.4,106.1,1.2,2.6,108.6,0.00,13.7,14.4,"23:54:56",1
